NPV1200 LGAV-LIRN

Flight info

Callsign NPV1200
Flight time 1h 23m
Altitude 36000
Route KOR UL53 IXONI DCT TIGRA DCT MOKTO DCT DOGUS DCT EKTOL
Aircraft A320/M-SDE3FGHIRWY/LB1

Departure

Time 2026-05-05 16:40
Airport Athens Eleftherios Venizelos International Airport (LGAV)

Arrival

Time 2026-05-05 18:03
Airport Naples International Airport (LIRN)
Time Latitude Longitude Altitude Speed Heading
2026-05-05 16:11 37.93605 23.94839 301 ft 0 kts 307°
2026-05-05 16:27 37.93600 23.94848 301 ft 4 kts 308°
2026-05-05 16:28 37.93582 23.94874 301 ft 4 kts 315°
2026-05-05 16:28 37.93562 23.94896 301 ft 4 kts 334°
2026-05-05 16:28 37.93539 23.94901 301 ft 3 kts 31°
2026-05-05 16:28 37.93536 23.94899 300 ft 0 kts 37°
2026-05-05 16:34 37.93558 23.94920 301 ft 5 kts 37°
2026-05-05 16:34 37.93597 23.94960 300 ft 11 kts 47°
2026-05-05 16:35 37.93576 23.95045 301 ft 12 kts 167°
2026-05-05 16:35 37.93503 23.94997 302 ft 14 kts 216°
2026-05-05 16:35 37.93419 23.94948 300 ft 18 kts 169°
2026-05-05 16:35 37.93320 23.94971 299 ft 15 kts 213°
2026-05-05 16:36 37.93246 23.94898 299 ft 12 kts 216°
2026-05-05 16:36 37.93175 23.94831 301 ft 16 kts 217°
2026-05-05 16:36 37.93056 23.94717 302 ft 26 kts 217°
2026-05-05 16:36 37.92906 23.94577 302 ft 27 kts 217°
2026-05-05 16:37 37.92766 23.94443 302 ft 22 kts 216°
2026-05-05 16:37 37.92644 23.94327 305 ft 14 kts 218°
2026-05-05 16:37 37.92616 23.94303 304 ft 4 kts 214°
2026-05-05 16:37 37.92600 23.94288 303 ft 2 kts 214°
2026-05-05 16:38 37.92585 23.94276 303 ft 8 kts 214°
2026-05-05 16:38 37.92485 23.94178 303 ft 18 kts 213°
2026-05-05 16:38 37.92410 23.94241 305 ft 15 kts 90°
2026-05-05 16:38 37.92419 23.94358 309 ft 12 kts 74°
2026-05-05 16:39 37.92507 23.94474 309 ft 33 kts 37°
2026-05-05 16:39 37.92891 23.94838 301 ft 102 kts 37°
2026-05-05 16:39 37.93616 23.95528 284 ft 156 kts 37°
2026-05-05 16:39 37.94518 23.96390 814 ft 161 kts 37°
2026-05-05 16:40 37.95401 23.97235 1503 ft 162 kts 38°
2026-05-05 16:40 37.96298 23.98095 2177 ft 162 kts 37°
2026-05-05 16:40 37.97197 23.98958 2763 ft 162 kts 35°
2026-05-05 16:40 37.98097 23.99823 3348 ft 162 kts 35°
2026-05-05 16:41 37.99031 24.00719 3694 ft 178 kts 35°
2026-05-05 16:41 38.00081 24.01721 3913 ft 200 kts 34°
2026-05-05 16:41 38.01253 24.02841 4141 ft 220 kts 35°
2026-05-05 16:41 38.02539 24.04075 4449 ft 242 kts 35°
2026-05-05 16:42 38.03999 24.05269 4933 ft 257 kts 18°
2026-05-05 16:42 38.05766 24.05519 5654 ft 259 kts 350°
2026-05-05 16:42 38.07448 24.04726 6492 ft 261 kts 326°
2026-05-05 16:42 38.08712 24.03069 7285 ft 266 kts 302°
2026-05-05 16:43 38.09280 24.00810 8065 ft 275 kts 276°
2026-05-05 16:43 38.09258 23.98390 8845 ft 280 kts 272°
2026-05-05 16:43 38.09199 23.95874 9646 ft 284 kts 271°
2026-05-05 16:43 38.09144 23.93353 10315 ft 290 kts 272°
2026-05-05 16:44 38.09092 23.90725 10539 ft 313 kts 272°
2026-05-05 16:44 38.09037 23.87853 10721 ft 337 kts 272°
2026-05-05 16:44 38.08978 23.84796 11037 ft 353 kts 272°
2026-05-05 16:44 38.08916 23.81660 11613 ft 359 kts 272°
2026-05-05 16:45 38.08849 23.78464 12250 ft 363 kts 272°
2026-05-05 16:45 38.08781 23.75237 12904 ft 367 kts 272°
2026-05-05 16:45 38.08713 23.71980 13550 ft 371 kts 271°
2026-05-05 16:45 38.08643 23.68676 14144 ft 376 kts 271°
2026-05-05 16:46 38.08573 23.65352 14707 ft 378 kts 271°
2026-05-05 16:46 38.08501 23.62004 15304 ft 380 kts 272°
2026-05-05 16:46 38.08428 23.58640 15885 ft 383 kts 272°
2026-05-05 16:46 38.08354 23.55301 16471 ft 385 kts 272°
2026-05-05 16:47 38.08278 23.51893 17047 ft 387 kts 272°
2026-05-05 16:47 38.08199 23.48464 17623 ft 389 kts 272°
2026-05-05 16:47 38.08120 23.45025 18184 ft 391 kts 272°
2026-05-05 16:47 38.08041 23.41568 18642 ft 393 kts 272°
2026-05-05 16:48 38.07960 23.38098 19150 ft 394 kts 272°
2026-05-05 16:48 38.07875 23.34609 19642 ft 395 kts 272°
2026-05-05 16:48 38.07790 23.31121 20149 ft 396 kts 272°
2026-05-05 16:48 38.07706 23.27622 20630 ft 397 kts 272°
2026-05-05 16:49 38.07620 23.24108 21095 ft 399 kts 272°
2026-05-05 16:49 38.07532 23.20581 21558 ft 400 kts 272°
2026-05-05 16:49 38.07443 23.17043 22016 ft 402 kts 272°
2026-05-05 16:49 38.07352 23.13486 22455 ft 404 kts 272°
2026-05-05 16:50 38.07260 23.09907 22875 ft 406 kts 272°
2026-05-05 16:50 38.07166 23.06374 23309 ft 407 kts 272°
2026-05-05 16:50 38.07070 23.02771 23715 ft 409 kts 272°
2026-05-05 16:50 38.06973 22.99154 24051 ft 411 kts 272°
2026-05-05 16:51 38.06874 22.95524 24401 ft 412 kts 272°
2026-05-05 16:51 38.06774 22.91887 24736 ft 414 kts 273°
2026-05-05 16:51 38.06675 22.88232 25086 ft 415 kts 273°
2026-05-05 16:51 38.06573 22.84570 25431 ft 416 kts 273°
2026-05-05 16:52 38.06467 22.80895 25766 ft 417 kts 273°
2026-05-05 16:52 38.06358 22.77204 26085 ft 418 kts 273°
2026-05-05 16:52 38.06441 22.73533 26419 ft 414 kts 281°
2026-05-05 16:52 38.07019 22.69986 26744 ft 410 kts 291°
2026-05-05 16:53 38.08071 22.66642 27039 ft 407 kts 300°
2026-05-05 16:53 38.09540 22.63586 27333 ft 406 kts 307°
2026-05-05 16:53 38.11164 22.60647 27624 ft 407 kts 307°
2026-05-05 16:53 38.12801 22.57716 27946 ft 407 kts 307°
2026-05-05 16:54 38.14458 22.54791 28248 ft 408 kts 307°
2026-05-05 16:54 38.15562 22.52857 28444 ft 409 kts 307°
2026-05-05 16:54 38.17778 22.48984 28858 ft 409 kts 308°
2026-05-05 16:54 38.19443 22.46067 29279 ft 407 kts 307°
2026-05-05 16:55 38.21095 22.43160 29709 ft 404 kts 307°
2026-05-05 16:55 38.22735 22.40265 30137 ft 402 kts 307°
2026-05-05 16:55 38.24360 22.37390 30500 ft 400 kts 307°
2026-05-05 16:55 38.25457 22.35448 30728 ft 399 kts 307°
2026-05-05 16:56 38.27077 22.32584 31063 ft 398 kts 308°
2026-05-05 16:56 38.28689 22.29727 31389 ft 397 kts 308°
2026-05-05 16:56 38.30296 22.26880 31708 ft 396 kts 308°
2026-05-05 16:56 38.31902 22.24036 32021 ft 395 kts 308°
2026-05-05 16:57 38.33483 22.21237 32342 ft 394 kts 308°
2026-05-05 16:57 38.35079 22.18403 32682 ft 393 kts 308°
2026-05-05 16:57 38.36669 22.15572 33045 ft 392 kts 308°
2026-05-05 16:57 38.38250 22.12754 33392 ft 390 kts 308°
2026-05-05 16:58 38.39826 22.09943 33743 ft 389 kts 308°
2026-05-05 16:58 38.41397 22.07141 34031 ft 388 kts 308°
2026-05-05 16:58 38.42965 22.04345 34255 ft 388 kts 308°
2026-05-05 16:58 38.44535 22.01543 34518 ft 388 kts 308°
2026-05-05 16:59 38.46103 21.98744 34774 ft 387 kts 308°
2026-05-05 16:59 38.47667 21.95946 35019 ft 387 kts 307°
2026-05-05 16:59 38.49228 21.93150 35257 ft 387 kts 307°
2026-05-05 16:59 38.50794 21.90344 35441 ft 388 kts 307°
2026-05-05 17:00 38.52363 21.87534 35662 ft 388 kts 307°
2026-05-05 17:00 38.53927 21.84733 35874 ft 387 kts 307°
2026-05-05 17:00 38.55488 21.81932 36054 ft 388 kts 307°
2026-05-05 17:00 38.57056 21.79114 36094 ft 389 kts 306°
2026-05-05 17:01 38.60203 21.73439 36101 ft 392 kts 306°
2026-05-05 17:01 38.63359 21.67740 36101 ft 392 kts 306°
2026-05-05 17:02 38.66511 21.62051 36104 ft 392 kts 306°
2026-05-05 17:02 38.69646 21.56384 36104 ft 392 kts 306°
2026-05-05 17:03 38.72789 21.50674 36100 ft 392 kts 306°
2026-05-05 17:03 38.75935 21.44966 36100 ft 392 kts 306°
2026-05-05 17:04 38.79077 21.39259 36104 ft 392 kts 306°
2026-05-05 17:04 38.82215 21.33538 36105 ft 392 kts 306°
2026-05-05 17:05 38.85349 21.27809 36103 ft 392 kts 306°
2026-05-05 17:05 38.88481 21.22079 36105 ft 392 kts 306°
2026-05-05 17:06 38.91611 21.16339 36106 ft 392 kts 306°
2026-05-05 17:06 38.94725 21.10630 36098 ft 392 kts 305°
2026-05-05 17:07 38.97856 21.04878 36109 ft 393 kts 305°
2026-05-05 17:07 39.00985 20.99109 36110 ft 393 kts 305°
2026-05-05 17:08 39.04109 20.93340 36112 ft 393 kts 305°
2026-05-05 17:08 39.07240 20.87562 36112 ft 393 kts 305°
2026-05-05 17:09 39.10363 20.81783 36109 ft 393 kts 305°
2026-05-05 17:09 39.13480 20.75992 36100 ft 394 kts 305°
2026-05-05 17:10 39.16598 20.70197 36104 ft 394 kts 305°
2026-05-05 17:10 39.19717 20.64386 36106 ft 394 kts 305°
2026-05-05 17:11 39.22815 20.58612 36111 ft 394 kts 305°
2026-05-05 17:11 39.25932 20.52788 36113 ft 394 kts 305°
2026-05-05 17:12 39.29041 20.46966 36124 ft 394 kts 304°
2026-05-05 17:12 39.32155 20.41119 36117 ft 395 kts 304°
2026-05-05 17:13 39.35262 20.35267 36108 ft 395 kts 304°
2026-05-05 17:13 39.38372 20.29411 36113 ft 395 kts 304°
2026-05-05 17:14 39.41490 20.23547 36114 ft 396 kts 304°
2026-05-05 17:14 39.44599 20.17672 36113 ft 396 kts 304°
2026-05-05 17:15 39.47707 20.11790 36094 ft 396 kts 304°
2026-05-05 17:15 39.50795 20.05934 36092 ft 397 kts 304°
2026-05-05 17:16 39.53912 20.00016 36093 ft 398 kts 304°
2026-05-05 17:16 39.57020 19.94089 36096 ft 398 kts 304°
2026-05-05 17:17 39.60134 19.88149 36103 ft 398 kts 304°
2026-05-05 17:17 39.63244 19.82199 36112 ft 398 kts 304°
2026-05-05 17:18 39.66349 19.76243 36102 ft 399 kts 304°
2026-05-05 17:18 39.69458 19.70283 36100 ft 399 kts 304°
2026-05-05 17:19 39.72574 19.64305 36108 ft 399 kts 304°
2026-05-05 17:19 39.75663 19.58364 36109 ft 400 kts 304°
2026-05-05 17:20 39.78787 19.52327 36104 ft 400 kts 303°
2026-05-05 17:20 39.81871 19.46363 36108 ft 400 kts 304°
2026-05-05 17:21 39.84978 19.40358 36105 ft 400 kts 303°
2026-05-05 17:22 39.89638 19.31334 36099 ft 400 kts 303°
2026-05-05 17:22 39.92735 19.25298 36095 ft 400 kts 303°
2026-05-05 17:23 39.95831 19.19258 36098 ft 401 kts 303°
2026-05-05 17:23 39.98930 19.13216 36100 ft 401 kts 303°
2026-05-05 17:24 40.02030 19.07166 36090 ft 401 kts 303°
2026-05-05 17:24 40.05113 19.01089 36089 ft 402 kts 300°
2026-05-05 17:25 40.07419 18.94455 36082 ft 401 kts 292°
2026-05-05 17:25 40.09518 18.87751 36081 ft 402 kts 292°
2026-05-05 17:26 40.11650 18.81002 36085 ft 402 kts 292°
2026-05-05 17:26 40.13775 18.74243 36076 ft 402 kts 292°
2026-05-05 17:27 40.15887 18.67485 36076 ft 401 kts 292°
2026-05-05 17:27 40.17994 18.60726 36079 ft 401 kts 292°
2026-05-05 17:28 40.20094 18.53965 36078 ft 401 kts 292°
2026-05-05 17:28 40.22194 18.47198 36080 ft 401 kts 292°
2026-05-05 17:29 40.24274 18.40482 36080 ft 401 kts 292°
2026-05-05 17:29 40.26359 18.33715 36084 ft 401 kts 292°
2026-05-05 17:30 40.28439 18.26948 36086 ft 400 kts 292°
2026-05-05 17:30 40.30519 18.20180 36087 ft 400 kts 292°
2026-05-05 17:31 40.32591 18.13407 36089 ft 400 kts 292°
2026-05-05 17:31 40.34660 18.06638 36093 ft 400 kts 292°
2026-05-05 17:32 40.36726 17.99867 36083 ft 400 kts 292°
2026-05-05 17:32 40.38787 17.93101 36076 ft 400 kts 292°
2026-05-05 17:33 40.40835 17.86371 36066 ft 400 kts 292°
2026-05-05 17:33 40.42890 17.79587 36068 ft 400 kts 292°
2026-05-05 17:34 40.44935 17.72804 36074 ft 399 kts 291°
2026-05-05 17:34 40.46970 17.66021 36087 ft 399 kts 291°
2026-05-05 17:35 40.49002 17.59247 36090 ft 398 kts 291°
2026-05-05 17:35 40.51036 17.52478 36091 ft 398 kts 291°
2026-05-05 17:36 40.53058 17.45714 36086 ft 398 kts 291°
2026-05-05 17:36 40.55074 17.38943 36087 ft 397 kts 291°
2026-05-05 17:37 40.57071 17.32221 36085 ft 397 kts 291°
2026-05-05 17:37 40.59078 17.25460 36089 ft 396 kts 291°
2026-05-05 17:38 40.61072 17.18706 36085 ft 396 kts 291°
2026-05-05 17:38 40.63031 17.11937 36084 ft 396 kts 290°
2026-05-05 17:39 40.64943 17.05135 36087 ft 396 kts 290°
2026-05-05 17:39 40.66838 16.98334 36080 ft 396 kts 290°
2026-05-05 17:40 40.68735 16.91575 36078 ft 396 kts 290°
2026-05-05 17:40 40.70655 16.84781 36075 ft 395 kts 290°
2026-05-05 17:41 40.72563 16.77983 36079 ft 396 kts 290°
2026-05-05 17:41 40.74459 16.71169 36072 ft 396 kts 290°
2026-05-05 17:42 40.76355 16.64356 36065 ft 396 kts 290°
2026-05-05 17:42 40.78251 16.57541 36043 ft 396 kts 290°
2026-05-05 17:43 40.80141 16.50715 36034 ft 396 kts 290°
2026-05-05 17:43 40.81084 16.47292 35798 ft 396 kts 290°
2026-05-05 17:43 40.82022 16.43878 35547 ft 397 kts 290°
2026-05-05 17:43 40.82965 16.40447 35308 ft 397 kts 290°
2026-05-05 17:44 40.83908 16.37023 35059 ft 398 kts 290°
2026-05-05 17:44 40.84854 16.33589 34658 ft 399 kts 289°
2026-05-05 17:44 40.85789 16.30181 33879 ft 401 kts 289°
2026-05-05 17:44 40.86742 16.26696 32988 ft 404 kts 289°
2026-05-05 17:45 40.87696 16.23200 32167 ft 406 kts 289°
2026-05-05 17:45 40.88657 16.19688 31315 ft 408 kts 289°
2026-05-05 17:45 40.89629 16.16144 30414 ft 411 kts 289°
2026-05-05 17:45 40.90606 16.12571 29372 ft 416 kts 289°
2026-05-05 17:46 40.91586 16.08968 28384 ft 417 kts 288°
2026-05-05 17:46 40.92565 16.05358 27490 ft 418 kts 288°
2026-05-05 17:46 40.93542 16.01764 26895 ft 411 kts 288°
2026-05-05 17:46 40.94503 15.98228 26230 ft 408 kts 288°
2026-05-05 17:47 40.95453 15.94710 25589 ft 405 kts 288°
2026-05-05 17:47 40.96395 15.91210 24945 ft 402 kts 288°
2026-05-05 17:47 40.97327 15.87743 24312 ft 399 kts 288°
2026-05-05 17:47 40.98258 15.84288 23700 ft 397 kts 288°
2026-05-05 17:48 40.99185 15.80845 23008 ft 395 kts 288°
2026-05-05 17:48 41.00098 15.77442 22422 ft 390 kts 288°
2026-05-05 17:48 41.00695 15.75214 22040 ft 388 kts 288°
2026-05-05 17:48 41.01595 15.71857 21432 ft 385 kts 288°
2026-05-05 17:49 41.02504 15.67360 20661 ft 380 kts 282°
2026-05-05 17:49 41.02886 15.65058 20280 ft 378 kts 282°
2026-05-05 17:49 41.03448 15.61664 19738 ft 376 kts 282°
2026-05-05 17:49 41.04190 15.57214 19036 ft 372 kts 282°
2026-05-05 17:50 41.04566 15.54952 18699 ft 370 kts 282°
2026-05-05 17:50 41.05118 15.51634 18174 ft 368 kts 282°
2026-05-05 17:50 41.05664 15.48342 17674 ft 364 kts 282°
2026-05-05 17:50 41.06201 15.45084 17197 ft 360 kts 282°
2026-05-05 17:51 41.06728 15.41896 16725 ft 357 kts 282°
2026-05-05 17:51 41.07263 15.38653 16243 ft 355 kts 282°
2026-05-05 17:51 41.07781 15.35508 15770 ft 353 kts 282°
2026-05-05 17:51 41.08301 15.32333 15290 ft 351 kts 281°
2026-05-05 17:52 41.08818 15.29174 14775 ft 350 kts 281°
2026-05-05 17:52 41.09332 15.26020 14279 ft 354 kts 282°
2026-05-05 17:52 41.09863 15.22754 14072 ft 368 kts 282°
2026-05-05 17:52 41.10398 15.19431 14064 ft 371 kts 280°
2026-05-05 17:53 41.10656 15.16020 13480 ft 374 kts 270°
2026-05-05 17:53 41.10412 15.12547 12502 ft 382 kts 263°
2026-05-05 17:53 41.10069 15.09051 11793 ft 381 kts 263°
2026-05-05 17:53 41.09738 15.05597 11389 ft 371 kts 263°
2026-05-05 17:54 41.09426 15.02291 11255 ft 349 kts 263°
2026-05-05 17:54 41.09145 14.99269 11129 ft 320 kts 263°
2026-05-05 17:54 41.08885 14.96448 10973 ft 298 kts 263°
2026-05-05 17:54 41.08641 14.93774 10544 ft 288 kts 263°
2026-05-05 17:55 41.08404 14.91175 10222 ft 280 kts 263°
2026-05-05 17:55 41.08169 14.88608 10161 ft 281 kts 263°
2026-05-05 17:55 41.07933 14.86025 10091 ft 282 kts 263°
2026-05-05 17:55 41.07695 14.83444 9610 ft 287 kts 263°
2026-05-05 17:56 41.07450 14.80837 9210 ft 280 kts 263°
2026-05-05 17:56 41.07210 14.78291 8561 ft 277 kts 263°
2026-05-05 17:56 41.06972 14.75771 7937 ft 274 kts 262°
2026-05-05 17:56 41.06735 14.73267 7284 ft 272 kts 263°
2026-05-05 17:57 41.06507 14.70870 7114 ft 252 kts 262°
2026-05-05 17:57 41.06297 14.68642 6856 ft 238 kts 263°
2026-05-05 17:57 41.05987 14.66560 6972 ft 236 kts 250°
2026-05-05 17:57 41.05216 14.64461 6738 ft 263 kts 240°
2026-05-05 17:58 41.04255 14.62428 6396 ft 263 kts 238°
2026-05-05 17:58 41.03281 14.60386 6012 ft 261 kts 239°
2026-05-05 17:58 41.02330 14.58352 5622 ft 259 kts 239°
2026-05-05 17:58 41.01389 14.56333 5250 ft 258 kts 239°
2026-05-05 17:59 41.00444 14.54309 4874 ft 258 kts 238°
2026-05-05 17:59 40.99499 14.52290 4484 ft 256 kts 238°
2026-05-05 17:59 40.98564 14.50290 4109 ft 255 kts 238°
2026-05-05 17:59 40.97631 14.48299 3730 ft 254 kts 237°
2026-05-05 18:00 40.96702 14.46314 3357 ft 252 kts 237°
2026-05-05 18:00 40.95784 14.44356 2979 ft 250 kts 237°
2026-05-05 18:00 40.94878 14.42424 2612 ft 246 kts 237°
2026-05-05 18:00 40.94011 14.40576 2263 ft 230 kts 237°
2026-05-05 18:01 40.93201 14.38853 1941 ft 218 kts 238°
2026-05-05 18:01 40.92410 14.37171 1606 ft 209 kts 238°
2026-05-05 18:01 40.91680 14.35618 1312 ft 195 kts 240°
2026-05-05 18:01 40.90994 14.34162 1047 ft 177 kts 240°
2026-05-05 18:02 40.90382 14.32863 786 ft 160 kts 239°
2026-05-05 18:02 40.89821 14.31669 558 ft 148 kts 239°
2026-05-05 18:02 40.89287 14.30528 318 ft 143 kts 239°
2026-05-05 18:02 40.88779 14.29444 255 ft 126 kts 238°
2026-05-05 18:03 40.88475 14.28804 278 ft 39 kts 237°
2026-05-05 18:03 40.88370 14.28585 285 ft 26 kts 235°
2026-05-05 18:03 40.88235 14.28430 286 ft 26 kts 213°
2026-05-05 18:03 40.88103 14.28337 293 ft 15 kts 207°
2026-05-05 18:04 40.88055 14.28399 288 ft 12 kts 98°
2026-05-05 18:04 40.88042 14.28506 287 ft 11 kts 112°
2026-05-05 18:04 40.87982 14.28506 293 ft 13 kts 212°
2026-05-05 18:04 40.87940 14.28396 294 ft 8 kts 275°
2026-05-05 18:05 40.87945 14.28334 292 ft 7 kts 277°
2026-05-05 18:05 40.87951 14.28273 293 ft 5 kts 277°
2026-05-05 18:05 40.87953 14.28244 294 ft 1 kts 277°
2026-05-05 18:05 40.87958 14.28201 297 ft 8 kts 279°
2026-05-05 18:06 40.87964 14.28149 299 ft 6 kts 277°
2026-05-05 18:06 40.87952 14.28105 301 ft 7 kts 234°
2026-05-05 18:06 40.87918 14.28077 303 ft 5 kts 165°
2026-05-05 18:06 40.87903 14.28093 304 ft 1 kts 142°
2026-05-05 18:07 40.87888 14.28108 300 ft 3 kts 142°
2026-05-05 18:07 40.87875 14.28122 300 ft 0 kts 139°
2026-05-05 18:07 40.87867 14.28132 300 ft 0 kts 139°